Time,TemperatureF,DewpointF,PressureIn,WindDirection,WindDirectionDegrees,WindSpeedMPH,WindSpeedGustMPH,Humidity,HourlyPrecipIn,Conditions,Clouds,dailyrainin,SoftwareType,DateUTC
2013-03-13 00:00:00,39.0,31.8,28.97,North,351,3.1,5.4,75,0.00,,---,0.00,VWS V14.01,2013-03-13 04:00:00,
2013-03-13 00:04:00,39.0,31.8,28.97,NNW,345,4.9,5.4,75,0.00,,---,0.00,VWS V14.01,2013-03-13 04:04:00,
2013-03-13 00:08:00,38.8,31.3,28.97,North,0,5.4,5.8,74,0.00,,---,0.00,VWS V14.01,2013-03-13 04:08:00,
2013-03-13 00:10:00,38.8,31.3,28.97,North,351,6.3,6.3,74,0.00,,---,0.00,VWS V14.01,2013-03-13 04:10:00,
2013-03-13 00:15:00,38.7,30.8,28.97,North,0,6.9,6.9,73,0.00,,---,0.00,VWS V14.01,2013-03-13 04:15:00,
2013-03-13 00:20:00,38.8,30.3,28.97,North,351,6.3,6.3,71,0.04,,---,0.04,VWS V14.01,2013-03-13 04:20:00,
2013-03-13 00:25:00,38.5,29.9,28.97,North,351,4.5,6.3,71,0.04,,---,0.04,VWS V14.01,2013-03-13 04:25:00,
2013-03-13 00:30:00,38.5,30.2,28.97,North,351,5.8,6.9,72,0.04,,---,0.04,VWS V14.01,2013-03-13 04:30:00,
2013-03-13 00:35:00,38.3,30.1,28.97,NNW,346,5.8,6.7,72,0.04,,---,0.04,VWS V14.01,2013-03-13 04:35:00,
2013-03-13 00:40:00,38.1,29.9,28.97,North,351,5.4,6.3,72,0.04,,---,0.04,VWS V14.01,2013-03-13 04:40:00,
2013-03-13 00:45:00,38.1,29.9,28.97,North,351,4.0,6.9,72,0.04,,---,0.04,VWS V14.01,2013-03-13 04:45:00,
2013-03-13 00:50:00,37.9,29.7,28.97,North,351,4.9,5.8,72,0.04,,---,0.04,VWS V14.01,2013-03-13 04:50:00,
2013-03-13 00:56:00,37.9,29.4,28.97,North,0,6.7,7.4,71,0.04,,---,0.04,VWS V14.01,2013-03-13 04:56:00,
2013-03-13 01:01:00,37.9,29.7,29.00,North,3,3.6,5.8,72,0.04,,---,0.04,VWS V14.01,2013-03-13 05:01:00,
2013-03-13 01:06:00,37.9,29.7,29.00,North,0,6.7,6.7,72,0.04,,---,0.04,VWS V14.01,2013-03-13 05:06:00,
2013-03-13 01:11:00,37.8,29.6,29.00,North,3,4.9,5.4,72,0.04,,---,0.04,VWS V14.01,2013-03-13 05:11:00,
2013-03-13 01:16:00,37.9,30.1,29.00,North,6,4.0,4.5,73,0.04,,---,0.04,VWS V14.01,2013-03-13 05:16:00,
2013-03-13 01:21:00,37.9,30.1,29.00,North,351,4.9,4.9,73,0.00,,---,0.04,VWS V14.01,2013-03-13 05:21:00,
2013-03-13 01:26:00,37.9,29.7,29.00,North,351,3.6,4.9,72,0.00,,---,0.04,VWS V14.01,2013-03-13 05:26:00,
2013-03-13 01:31:00,37.9,29.7,29.00,North,0,4.0,5.8,72,0.00,,---,0.04,VWS V14.01,2013-03-13 05:31:00,
2013-03-13 01:36:00,37.9,29.7,29.00,North,351,4.9,5.8,72,0.00,,---,0.04,VWS V14.01,2013-03-13 05:36:00,
2013-03-13 01:41:00,37.9,29.7,29.00,North,351,4.5,7.4,72,0.00,,---,0.04,VWS V14.01,2013-03-13 05:41:00,
2013-03-13 01:46:00,37.9,29.4,29.00,NNW,343,4.9,5.4,71,0.00,,---,0.04,VWS V14.01,2013-03-13 05:46:00,
2013-03-13 01:51:00,37.9,29.4,29.00,North,351,4.0,6.3,71,0.00,,---,0.04,VWS V14.01,2013-03-13 05:51:00,
2013-03-13 01:56:00,38.1,29.2,29.00,North,351,0.0,4.9,70,0.00,,---,0.04,VWS V14.01,2013-03-13 05:56:00,
2013-03-13 02:01:00,37.9,29.4,29.00,North,351,5.4,8.3,71,0.00,,---,0.04,VWS V14.01,2013-03-13 06:01:00,
2013-03-13 02:06:00,38.1,29.2,29.00,North,351,5.8,5.8,70,0.00,,---,0.04,VWS V14.01,2013-03-13 06:06:00,
2013-03-13 02:11:00,38.1,29.2,29.00,North,351,4.5,4.9,70,0.00,,---,0.04,VWS V14.01,2013-03-13 06:11:00,
2013-03-13 02:16:00,37.9,29.0,29.00,North,351,5.8,6.7,70,0.00,,---,0.04,VWS V14.01,2013-03-13 06:16:00,
2013-03-13 02:21:00,38.1,29.2,29.00,North,351,4.5,4.5,70,0.00,,---,0.04,VWS V14.01,2013-03-13 06:21:00,
2013-03-13 02:27:00,37.9,29.0,29.00,North,351,4.5,4.9,70,0.00,,---,0.04,VWS V14.01,2013-03-13 06:27:00,
2013-03-13 02:32:00,37.9,29.0,29.00,North,351,4.5,4.9,70,0.00,,---,0.04,VWS V14.01,2013-03-13 06:32:00,
2013-03-13 02:37:00,37.8,28.5,29.00,North,351,4.9,6.7,69,0.00,,---,0.04,VWS V14.01,2013-03-13 06:37:00,
2013-03-13 02:42:00,37.6,28.0,29.00,North,351,5.8,6.3,68,0.00,,---,0.04,VWS V14.01,2013-03-13 06:42:00,
2013-03-13 02:47:00,37.4,28.2,29.00,North,0,4.5,5.8,69,0.00,,---,0.04,VWS V14.01,2013-03-13 06:47:00,
2013-03-13 02:52:00,37.2,28.0,29.00,North,351,4.0,5.4,69,0.00,,---,0.04,VWS V14.01,2013-03-13 06:52:00,
2013-03-13 02:58:00,37.0,28.2,29.00,North,351,4.9,4.9,70,0.00,,---,0.04,VWS V14.01,2013-03-13 06:58:00,
2013-03-13 03:03:00,37.0,28.2,29.00,North,4,4.5,4.5,70,0.00,,---,0.04,VWS V14.01,2013-03-13 07:03:00,
2013-03-13 03:08:00,36.9,28.0,29.00,North,0,4.0,4.9,70,0.00,,---,0.04,VWS V14.01,2013-03-13 07:08:00,
2013-03-13 03:13:00,36.9,28.4,29.00,North,356,4.5,5.8,71,0.00,,---,0.04,VWS V14.01,2013-03-13 07:13:00,
2013-03-13 03:19:00,36.7,28.2,29.00,NNW,342,4.5,4.9,71,0.00,,---,0.04,VWS V14.01,2013-03-13 07:19:00,
2013-03-13 03:24:00,36.7,28.2,29.00,North,351,3.1,4.0,71,0.00,,---,0.04,VWS V14.01,2013-03-13 07:24:00,
2013-03-13 03:29:00,36.7,28.2,29.00,North,351,0.0,0.0,71,0.00,,---,0.04,VWS V14.01,2013-03-13 07:29:00,
2013-03-13 03:34:00,36.7,28.5,29.00,North,351,3.6,4.5,72,0.00,,---,0.04,VWS V14.01,2013-03-13 07:34:00,
2013-03-13 03:39:00,36.5,28.7,29.00,North,351,0.0,4.0,73,0.00,,---,0.04,VWS V14.01,2013-03-13 07:39:00,
2013-03-13 03:44:00,36.5,29.0,29.00,North,0,0.0,4.5,74,0.00,,---,0.04,VWS V14.01,2013-03-13 07:44:00,
2013-03-13 03:49:00,36.5,29.0,29.00,North,0,0.0,3.1,74,0.00,,---,0.04,VWS V14.01,2013-03-13 07:49:00,
2013-03-13 03:54:00,36.3,28.5,29.00,North,0,3.6,4.5,73,0.00,,---,0.04,VWS V14.01,2013-03-13 07:54:00,
2013-03-13 03:59:00,36.1,28.3,29.00,North,0,2.7,2.7,73,0.00,,---,0.04,VWS V14.01,2013-03-13 07:59:00,
2013-03-13 04:05:00,36.1,28.0,29.00,North,0,3.6,4.9,72,0.00,,---,0.04,VWS V14.01,2013-03-13 08:05:00,
2013-03-13 04:10:00,36.1,28.0,29.00,North,0,0.0,0.0,72,0.00,,---,0.04,VWS V14.01,2013-03-13 08:10:00,
2013-03-13 04:16:00,36.0,27.8,29.00,North,0,3.6,4.0,72,0.00,,---,0.04,VWS V14.01,2013-03-13 08:16:00,
2013-03-13 04:21:00,35.8,27.6,29.00,North,0,0.0,4.5,72,0.00,,---,0.04,VWS V14.01,2013-03-13 08:21:00,
2013-03-13 04:26:00,35.6,27.5,29.00,North,0,3.1,4.0,72,0.00,,---,0.04,VWS V14.01,2013-03-13 08:26:00,
2013-03-13 04:31:00,35.6,27.1,29.00,North,0,3.1,4.5,71,0.00,,---,0.04,VWS V14.01,2013-03-13 08:31:00,
2013-03-13 04:36:00,35.6,27.1,29.00,North,351,3.6,4.5,71,0.00,,---,0.04,VWS V14.01,2013-03-13 08:36:00,
2013-03-13 04:41:00,35.4,26.6,29.00,North,351,0.0,3.6,70,0.00,,---,0.04,VWS V14.01,2013-03-13 08:41:00,
2013-03-13 04:46:00,35.4,26.6,29.00,NNW,345,0.0,4.0,70,0.00,,---,0.04,VWS V14.01,2013-03-13 08:46:00,
2013-03-13 04:51:00,35.4,26.3,29.00,North,351,3.1,3.6,69,0.00,,---,0.04,VWS V14.01,2013-03-13 08:51:00,
2013-03-13 04:56:00,35.2,26.1,29.00,North,351,0.0,4.5,69,0.00,,---,0.04,VWS V14.01,2013-03-13 08:56:00,
2013-03-13 05:01:00,35.2,26.1,29.00,North,351,0.0,2.7,69,0.00,,---,0.04,VWS V14.01,2013-03-13 09:01:00,
2013-03-13 05:06:00,35.2,26.1,29.00,North,351,0.0,0.0,69,0.00,,---,0.04,VWS V14.01,2013-03-13 09:06:00,
2013-03-13 05:11:00,35.1,25.9,29.00,North,351,3.1,3.6,69,0.00,,---,0.04,VWS V14.01,2013-03-13 09:11:00,
2013-03-13 05:16:00,35.1,25.9,29.00,North,351,0.0,0.0,69,0.00,,---,0.04,VWS V14.01,2013-03-13 09:16:00,
2013-03-13 05:21:00,35.1,25.9,29.00,North,351,0.0,0.0,69,0.00,,---,0.04,VWS V14.01,2013-03-13 09:21:00,
2013-03-13 05:27:00,35.1,26.3,29.00,North,351,0.0,0.0,70,0.00,,---,0.04,VWS V14.01,2013-03-13 09:27:00,
2013-03-13 05:32:00,35.1,26.3,29.00,North,351,0.0,3.1,70,0.00,,---,0.04,VWS V14.01,2013-03-13 09:32:00,
2013-03-13 05:37:00,35.1,25.9,29.00,North,351,3.1,3.1,69,0.00,,---,0.04,VWS V14.01,2013-03-13 09:37:00,
2013-03-13 05:43:00,35.1,25.6,29.00,North,351,0.0,0.0,68,0.00,,---,0.04,VWS V14.01,2013-03-13 09:43:00,
2013-03-13 05:48:00,35.1,25.6,29.00,North,351,0.0,0.0,68,0.00,,---,0.04,VWS V14.01,2013-03-13 09:48:00,
2013-03-13 05:53:00,35.1,25.2,29.00,North,351,2.7,3.6,67,0.00,,---,0.04,VWS V14.01,2013-03-13 09:53:00,
2013-03-13 05:58:00,35.1,24.5,29.00,North,351,3.1,3.6,65,0.00,,---,0.04,VWS V14.01,2013-03-13 09:58:00,
2013-03-13 06:03:00,35.1,24.1,29.00,North,351,2.7,3.1,64,0.00,,---,0.04,VWS V14.01,2013-03-13 10:03:00,
2013-03-13 06:08:00,34.9,23.6,29.00,North,351,0.0,0.0,63,0.00,,---,0.04,VWS V14.01,2013-03-13 10:08:00,
2013-03-13 06:13:00,34.9,23.6,29.00,North,351,0.0,0.0,63,0.00,,---,0.04,VWS V14.01,2013-03-13 10:13:00,
2013-03-13 06:18:00,34.5,23.6,29.00,North,351,0.0,0.0,64,0.00,,---,0.04,VWS V14.01,2013-03-13 10:18:00,
2013-03-13 06:24:00,34.3,23.1,29.00,North,351,0.0,0.0,63,0.00,,---,0.04,VWS V14.01,2013-03-13 10:24:00,
2013-03-13 06:29:00,34.2,23.3,29.00,North,351,0.0,0.0,64,0.00,,---,0.04,VWS V14.01,2013-03-13 10:29:00,
2013-03-13 06:34:00,34.0,23.1,29.00,North,351,0.0,0.0,64,0.00,,---,0.04,VWS V14.01,2013-03-13 10:34:00,
2013-03-13 06:39:00,34.0,23.5,29.00,North,351,0.0,0.0,65,0.00,,---,0.04,VWS V14.01,2013-03-13 10:39:00,
2013-03-13 06:44:00,34.0,23.8,29.00,North,351,2.7,3.1,66,0.00,,---,0.04,VWS V14.01,2013-03-13 10:44:00,
2013-03-13 06:49:00,34.0,23.8,29.03,North,351,0.0,0.0,66,0.00,,---,0.04,VWS V14.01,2013-03-13 10:49:00,
2013-03-13 06:54:00,34.0,23.8,29.03,North,351,0.0,0.0,66,0.00,,---,0.04,VWS V14.01,2013-03-13 10:54:00,
2013-03-13 06:59:00,34.0,23.8,29.03,North,351,2.7,3.1,66,0.00,,---,0.04,VWS V14.01,2013-03-13 10:59:00,
2013-03-13 07:04:00,34.2,22.5,29.00,North,351,3.6,4.5,62,0.00,,---,0.04,VWS V14.01,2013-03-13 11:04:00,
2013-03-13 07:10:00,34.3,21.1,29.00,North,351,0.0,0.0,58,0.00,,---,0.04,VWS V14.01,2013-03-13 11:10:00,
2013-03-13 07:15:00,34.3,20.7,29.00,North,351,3.6,4.0,57,0.00,,---,0.04,VWS V14.01,2013-03-13 11:15:00,
2013-03-13 07:20:00,34.3,20.3,29.00,North,351,0.0,0.0,56,0.00,,---,0.04,VWS V14.01,2013-03-13 11:20:00,
2013-03-13 07:25:00,34.5,19.6,29.00,North,351,0.0,4.0,54,0.00,,---,0.04,VWS V14.01,2013-03-13 11:25:00,
2013-03-13 07:30:00,34.9,19.5,29.00,North,351,0.0,2.7,53,0.00,,---,0.04,VWS V14.01,2013-03-13 11:30:00,
2013-03-13 07:35:00,34.9,19.9,29.00,North,351,0.0,0.0,54,0.00,,---,0.04,VWS V14.01,2013-03-13 11:35:00,
2013-03-13 07:41:00,34.9,19.9,29.00,North,351,0.0,0.0,54,0.00,,---,0.04,VWS V14.01,2013-03-13 11:41:00,
2013-03-13 07:47:00,34.9,19.5,29.03,North,351,0.0,0.0,53,0.00,,---,0.04,VWS V14.01,2013-03-13 11:47:00,
2013-03-13 07:52:00,34.9,19.1,29.03,North,351,0.0,0.0,52,0.00,,---,0.04,VWS V14.01,2013-03-13 11:52:00,
2013-03-13 07:57:00,35.1,19.2,29.03,North,351,0.0,0.0,52,0.00,,---,0.04,VWS V14.01,2013-03-13 11:57:00,
2013-03-13 08:02:00,35.1,18.8,29.03,NNW,347,4.0,4.0,51,0.00,,---,0.04,VWS V14.01,2013-03-13 12:02:00,
2013-03-13 08:07:00,35.1,18.3,29.03,North,351,0.0,4.0,50,0.00,,---,0.04,VWS V14.01,2013-03-13 12:07:00,
2013-03-13 08:12:00,35.2,17.0,29.03,North,351,0.0,0.0,47,0.00,,---,0.04,VWS V14.01,2013-03-13 12:12:00,
2013-03-13 08:17:00,35.2,17.5,29.03,North,351,0.0,0.0,48,0.00,,---,0.04,VWS V14.01,2013-03-13 12:17:00,
2013-03-13 08:22:00,35.2,17.5,29.03,North,351,0.0,0.0,48,0.00,,---,0.04,VWS V14.01,2013-03-13 12:22:00,
2013-03-13 08:27:00,35.4,17.7,29.03,North,351,0.0,0.0,48,0.00,,---,0.04,VWS V14.01,2013-03-13 12:27:00,
2013-03-13 08:33:00,35.4,17.2,29.03,North,351,0.0,0.0,47,0.00,,---,0.04,VWS V14.01,2013-03-13 12:33:00,
2013-03-13 08:38:00,35.8,16.0,29.03,North,351,0.0,0.0,44,0.00,,---,0.04,VWS V14.01,2013-03-13 12:38:00,
2013-03-13 08:43:00,36.0,16.2,29.03,North,351,0.0,0.0,44,0.00,,---,0.04,VWS V14.01,2013-03-13 12:43:00,
2013-03-13 08:48:00,36.0,16.7,29.03,North,351,0.0,0.0,45,0.00,,---,0.04,VWS V14.01,2013-03-13 12:48:00,
2013-03-13 08:53:00,36.1,16.9,29.03,North,351,0.0,0.0,45,0.00,,---,0.04,VWS V14.01,2013-03-13 12:53:00,
2013-03-13 08:58:00,36.5,17.2,29.03,North,351,0.0,0.0,45,0.00,,---,0.04,VWS V14.01,2013-03-13 12:58:00,
2013-03-13 09:03:00,37.0,16.1,29.03,North,351,0.0,0.0,42,0.00,,---,0.04,VWS V14.01,2013-03-13 13:03:00,
2013-03-13 09:09:00,38.1,17.1,29.03,North,351,0.0,0.0,42,0.00,,---,0.04,VWS V14.01,2013-03-13 13:09:00,
2013-03-13 09:14:00,38.7,17.0,29.03,North,351,0.0,0.0,41,0.00,,---,0.04,VWS V14.01,2013-03-13 13:14:00,
2013-03-13 09:19:00,39.2,16.9,29.03,ENE,76,0.0,0.0,40,0.00,,---,0.04,VWS V14.01,2013-03-13 13:19:00,
2013-03-13 09:24:00,39.6,16.7,29.03,North,7,0.0,0.0,39,0.00,,---,0.04,VWS V14.01,2013-03-13 13:24:00,
2013-03-13 09:29:00,40.3,16.1,29.03,NE,38,0.0,0.0,37,0.00,,---,0.04,VWS V14.01,2013-03-13 13:29:00,
2013-03-13 09:34:00,40.6,14.5,29.03,NNE,28,0.0,0.0,34,0.00,,---,0.04,VWS V14.01,2013-03-13 13:34:00,
2013-03-13 09:39:00,41.2,15.6,29.03,ENE,67,0.0,0.0,35,0.00,,---,0.04,VWS V14.01,2013-03-13 13:39:00,
2013-03-13 09:44:00,41.4,13.0,29.03,NNE,16,0.0,0.0,31,0.00,,---,0.04,VWS V14.01,2013-03-13 13:44:00,
2013-03-13 09:49:00,41.9,14.2,29.03,NNE,31,0.0,0.0,32,0.00,,---,0.04,VWS V14.01,2013-03-13 13:49:00,
2013-03-13 09:54:00,41.7,11.8,29.03,NE,49,0.0,0.0,29,0.00,,---,0.04,VWS V14.01,2013-03-13 13:54:00,
2013-03-13 09:59:00,42.3,13.1,29.03,North,351,0.0,2.7,30,0.00,,---,0.04,VWS V14.01,2013-03-13 13:59:00,
2013-03-13 10:04:00,42.1,12.1,29.03,North,351,0.0,3.1,29,0.00,,---,0.04,VWS V14.01,2013-03-13 14:04:00,
2013-03-13 10:09:00,43.0,14.4,29.03,SSE,162,0.0,0.0,31,0.00,,---,0.04,VWS V14.01,2013-03-13 14:09:00,
2013-03-13 10:14:00,43.5,14.2,29.03,SE,145,4.9,4.9,30,0.00,,---,0.04,VWS V14.01,2013-03-13 14:14:00,
2013-03-13 10:19:00,43.9,12.9,29.03,East,93,0.0,3.6,28,0.00,,---,0.04,VWS V14.01,2013-03-13 14:19:00,
2013-03-13 10:24:00,44.2,13.2,29.03,NNE,33,0.0,3.1,28,0.00,,---,0.04,VWS V14.01,2013-03-13 14:24:00,
2013-03-13 10:29:00,43.7,12.8,29.03,North,10,0.0,0.0,28,0.00,,---,0.04,VWS V14.01,2013-03-13 14:29:00,
2013-03-13 10:34:00,44.4,14.9,29.00,East,83,0.0,3.1,30,0.00,,---,0.04,VWS V14.01,2013-03-13 14:34:00,
2013-03-13 10:39:00,44.1,13.1,29.00,North,351,0.0,2.7,28,0.00,,---,0.04,VWS V14.01,2013-03-13 14:39:00,
2013-03-13 10:44:00,43.7,12.8,29.00,ENE,65,0.0,0.0,28,0.00,,---,0.04,VWS V14.01,2013-03-13 14:44:00,
2013-03-13 10:49:00,44.1,13.1,29.00,NNE,22,0.0,3.1,28,0.00,,---,0.04,VWS V14.01,2013-03-13 14:49:00,
2013-03-13 10:54:00,44.6,13.5,29.00,NNE,17,0.0,0.0,28,0.00,,---,0.04,VWS V14.01,2013-03-13 14:54:00,
2013-03-13 10:59:00,45.3,14.1,29.00,North,351,2.7,2.7,28,0.00,,---,0.04,VWS V14.01,2013-03-13 14:59:00,
2013-03-13 11:04:00,45.3,14.1,29.00,NNW,347,2.7,3.6,28,0.00,,---,0.04,VWS V14.01,2013-03-13 15:04:00,
2013-03-13 11:09:00,45.9,13.8,29.00,NNE,15,0.0,2.7,27,0.00,,---,0.04,VWS V14.01,2013-03-13 15:09:00,
2013-03-13 11:14:00,46.4,11.6,29.00,North,4,0.0,4.0,24,0.00,,---,0.04,VWS V14.01,2013-03-13 15:14:00,
2013-03-13 11:19:00,45.7,9.0,29.00,NE,48,0.0,4.0,22,0.00,,---,0.04,VWS V14.01,2013-03-13 15:19:00,
2013-03-13 11:24:00,45.5,8.9,29.00,NNE,29,0.0,0.0,22,0.00,,---,0.04,VWS V14.01,2013-03-13 15:24:00,
2013-03-13 11:29:00,45.5,8.9,29.00,East,79,0.0,2.7,22,0.00,,---,0.04,VWS V14.01,2013-03-13 15:29:00,
2013-03-13 11:34:00,45.7,9.0,29.00,East,92,0.0,3.6,22,0.00,,---,0.04,VWS V14.01,2013-03-13 15:34:00,
2013-03-13 11:39:00,45.3,8.7,29.00,NNW,331,0.0,3.1,22,0.00,,---,0.04,VWS V14.01,2013-03-13 15:39:00,
2013-03-13 11:44:00,45.9,9.2,29.00,NNW,345,4.5,4.5,22,0.00,,---,0.04,VWS V14.01,2013-03-13 15:44:00,
2013-03-13 11:49:00,46.2,9.5,29.00,NE,48,0.0,0.0,22,0.00,,---,0.04,VWS V14.01,2013-03-13 15:49:00,
2013-03-13 11:54:00,46.6,9.8,29.00,North,0,0.0,0.0,22,0.00,,---,0.04,VWS V14.01,2013-03-13 15:54:00,
2013-03-13 11:59:00,46.2,6.2,29.00,North,4,0.0,4.0,19,0.00,,---,0.04,VWS V14.01,2013-03-13 15:59:00,
2013-03-13 12:04:00,46.9,10.1,29.00,ENE,71,0.0,0.0,22,0.00,,---,0.04,VWS V14.01,2013-03-13 16:04:00,
2013-03-13 12:10:00,47.3,7.1,29.00,North,0,3.6,3.6,19,0.00,,---,0.04,VWS V14.01,2013-03-13 16:10:00,
2013-03-13 12:15:00,47.3,7.1,29.00,North,9,0.0,3.6,19,0.00,,---,0.04,VWS V14.01,2013-03-13 16:15:00,
2013-03-13 12:20:00,47.5,7.3,29.00,North,351,0.0,5.4,19,0.00,,---,0.04,VWS V14.01,2013-03-13 16:20:00,
2013-03-13 12:25:00,47.1,7.0,29.00,North,6,0.0,4.0,19,0.00,,---,0.04,VWS V14.01,2013-03-13 16:25:00,
2013-03-13 12:30:00,46.9,6.8,29.00,North,0,0.0,4.5,19,0.00,,---,0.04,VWS V14.01,2013-03-13 16:30:00,
2013-03-13 12:35:00,47.3,9.4,29.00,NE,52,0.0,0.0,21,0.00,,---,0.04,VWS V14.01,2013-03-13 16:35:00,
2013-03-13 12:40:00,47.3,7.1,29.00,NNE,19,0.0,3.1,19,0.00,,---,0.04,VWS V14.01,2013-03-13 16:40:00,
2013-03-13 12:45:00,46.6,6.5,29.00,East,90,0.0,2.7,19,0.00,,---,0.04,VWS V14.01,2013-03-13 16:45:00,
2013-03-13 12:50:00,45.9,5.9,29.00,NNW,336,4.0,4.0,19,0.00,,---,0.04,VWS V14.01,2013-03-13 16:50:00,
2013-03-13 12:55:00,45.5,5.7,29.00,North,8,0.0,0.0,19,0.00,,---,0.04,VWS V14.01,2013-03-13 16:55:00,
2013-03-13 13:00:00,45.5,5.7,28.97,ENE,63,0.0,0.0,19,0.00,,---,0.04,VWS V14.01,2013-03-13 17:00:00,
2013-03-13 13:05:00,46.4,6.4,28.97,NNW,343,0.0,3.6,19,0.00,,---,0.04,VWS V14.01,2013-03-13 17:05:00,
2013-03-13 13:10:00,46.4,6.4,28.97,North,5,0.0,3.6,19,0.00,,---,0.04,VWS V14.01,2013-03-13 17:10:00,
2013-03-13 13:15:00,46.4,6.4,28.97,NE,47,0.0,0.0,19,0.00,,---,0.04,VWS V14.01,2013-03-13 17:15:00,
2013-03-13 13:20:00,47.3,7.1,28.97,SSE,163,2.7,4.5,19,0.00,,---,0.04,VWS V14.01,2013-03-13 17:20:00,
2013-03-13 13:25:00,48.2,7.9,28.97,East,97,2.7,2.7,19,0.00,,---,0.04,VWS V14.01,2013-03-13 17:25:00,
2013-03-13 13:30:00,48.7,8.3,28.97,SE,133,0.0,0.0,19,0.00,,---,0.04,VWS V14.01,2013-03-13 17:30:00,
2013-03-13 13:35:00,48.7,8.3,28.97,NNW,338,0.0,4.9,19,0.00,,---,0.04,VWS V14.01,2013-03-13 17:35:00,
2013-03-13 13:40:00,49.1,8.6,28.97,East,83,3.6,4.9,19,0.00,,---,0.04,VWS V14.01,2013-03-13 17:40:00,
2013-03-13 13:45:00,49.1,8.6,28.97,NW,316,3.6,4.0,19,0.00,,---,0.04,VWS V14.01,2013-03-13 17:45:00,
2013-03-13 13:50:00,48.0,7.7,28.97,North,351,0.0,0.0,19,0.00,,---,0.04,VWS V14.01,2013-03-13 17:50:00,
2013-03-13 13:55:00,47.5,7.3,28.97,NNW,338,0.0,3.6,19,0.00,,---,0.04,VWS V14.01,2013-03-13 17:55:00,
2013-03-13 14:01:00,46.8,6.7,28.97,North,3,0.0,0.0,19,0.00,,---,0.04,VWS V14.01,2013-03-13 18:01:00,
2013-03-13 14:06:00,46.4,6.4,28.97,NNE,12,0.0,4.0,19,0.00,,---,0.04,VWS V14.01,2013-03-13 18:06:00,
2013-03-13 14:11:00,46.2,6.2,28.97,North,351,2.7,4.0,19,0.00,,---,0.04,VWS V14.01,2013-03-13 18:11:00,
2013-03-13 14:16:00,46.4,6.4,28.94,North,351,4.0,4.5,19,0.00,,---,0.04,VWS V14.01,2013-03-13 18:16:00,
2013-03-13 14:21:00,45.9,5.9,28.94,NE,34,0.0,0.0,19,0.00,,---,0.04,VWS V14.01,2013-03-13 18:21:00,
2013-03-13 14:26:00,45.9,5.9,28.94,NNE,16,4.0,4.0,19,0.00,,---,0.04,VWS V14.01,2013-03-13 18:26:00,
2013-03-13 14:31:00,45.9,5.9,28.94,NE,54,0.0,0.0,19,0.00,,---,0.04,VWS V14.01,2013-03-13 18:31:00,
2013-03-13 14:36:00,46.2,6.2,28.94,NNE,16,0.0,0.0,19,0.00,,---,0.04,VWS V14.01,2013-03-13 18:36:00,
2013-03-13 14:41:00,46.9,6.8,28.94,ENE,61,0.0,0.0,19,0.00,,---,0.04,VWS V14.01,2013-03-13 18:41:00,
2013-03-13 14:46:00,47.1,7.0,28.94,North,5,3.6,4.5,19,0.00,,---,0.04,VWS V14.01,2013-03-13 18:46:00,
2013-03-13 14:51:00,46.9,6.8,28.94,North,351,3.1,5.4,19,0.00,,---,0.04,VWS V14.01,2013-03-13 18:51:00,
2013-03-13 14:56:00,46.9,6.8,28.94,ENE,71,3.1,4.5,19,0.00,,---,0.04,VWS V14.01,2013-03-13 18:56:00,
2013-03-13 15:01:00,46.9,6.8,28.94,NNE,25,0.0,3.1,19,0.00,,---,0.04,VWS V14.01,2013-03-13 19:01:00,
2013-03-13 15:06:00,46.9,6.8,28.94,NNW,343,4.0,4.0,19,0.00,,---,0.04,VWS V14.01,2013-03-13 19:06:00,
2013-03-13 15:11:00,46.9,6.8,28.94,NE,50,0.0,0.0,19,0.00,,---,0.04,VWS V14.01,2013-03-13 19:11:00,
2013-03-13 15:16:00,47.5,7.3,28.94,East,92,0.0,0.0,19,0.00,,---,0.04,VWS V14.01,2013-03-13 19:16:00,
2013-03-13 15:21:00,47.5,7.3,28.94,East,97,3.1,3.1,19,0.00,,---,0.04,VWS V14.01,2013-03-13 19:21:00,
2013-03-13 15:27:00,47.3,7.1,28.94,North,5,0.0,4.0,19,0.00,,---,0.04,VWS V14.01,2013-03-13 19:27:00,
2013-03-13 15:32:00,47.1,7.0,28.94,ENE,68,0.0,0.0,19,0.00,,---,0.04,VWS V14.01,2013-03-13 19:32:00,
2013-03-13 15:37:00,46.9,6.8,28.94,East,91,0.0,4.0,19,0.00,,---,0.04,VWS V14.01,2013-03-13 19:37:00,
2013-03-13 15:42:00,46.9,6.8,28.94,ESE,102,0.0,0.0,19,0.00,,---,0.04,VWS V14.01,2013-03-13 19:42:00,
2013-03-13 15:47:00,47.1,7.0,28.94,ENE,59,0.0,3.6,19,0.00,,---,0.04,VWS V14.01,2013-03-13 19:47:00,
2013-03-13 15:52:00,47.1,7.0,28.94,East,95,0.0,4.0,19,0.00,,---,0.04,VWS V14.01,2013-03-13 19:52:00,
2013-03-13 15:57:00,47.1,7.0,28.94,East,80,2.7,4.0,19,0.00,,---,0.04,VWS V14.01,2013-03-13 19:57:00,
2013-03-13 16:02:00,46.9,6.8,28.94,North,351,0.0,0.0,19,0.00,,---,0.04,VWS V14.01,2013-03-13 20:02:00,
2013-03-13 16:07:00,46.9,4.4,28.94,NNE,24,0.0,0.0,17,0.00,,---,0.04,VWS V14.01,2013-03-13 20:07:00,
2013-03-13 16:12:00,46.9,4.4,28.94,North,1,0.0,0.0,17,0.00,,---,0.04,VWS V14.01,2013-03-13 20:12:00,
2013-03-13 16:18:00,46.9,4.4,28.94,North,0,0.0,4.5,17,0.00,,---,0.04,VWS V14.01,2013-03-13 20:18:00,
2013-03-13 16:23:00,46.6,4.1,28.94,East,88,0.0,4.5,17,0.00,,---,0.04,VWS V14.01,2013-03-13 20:23:00,
2013-03-13 16:28:00,46.4,4.0,28.94,East,86,0.0,0.0,17,0.00,,---,0.04,VWS V14.01,2013-03-13 20:28:00,
2013-03-13 16:33:00,46.0,3.7,28.94,East,88,0.0,0.0,17,0.00,,---,0.04,VWS V14.01,2013-03-13 20:33:00,
2013-03-13 16:38:00,45.9,3.5,28.94,East,94,3.6,3.6,17,0.00,,---,0.04,VWS V14.01,2013-03-13 20:38:00,
2013-03-13 16:44:00,45.7,3.4,28.94,North,7,2.7,4.0,17,0.00,,---,0.04,VWS V14.01,2013-03-13 20:44:00,
2013-03-13 16:49:00,45.5,3.2,28.94,North,2,0.0,0.0,17,0.00,,---,0.04,VWS V14.01,2013-03-13 20:49:00,
2013-03-13 16:54:00,45.5,3.2,28.94,North,2,0.0,0.0,17,0.00,,---,0.04,VWS V14.01,2013-03-13 20:54:00,
2013-03-13 16:59:00,45.7,5.8,28.94,North,351,0.0,3.6,19,0.00,,---,0.04,VWS V14.01,2013-03-13 20:59:00,
2013-03-13 17:04:00,45.5,3.2,28.94,North,2,0.0,0.0,17,0.00,,---,0.04,VWS V14.01,2013-03-13 21:04:00,
2013-03-13 17:09:00,45.3,3.1,28.94,NNE,17,0.0,0.0,17,0.00,,---,0.04,VWS V14.01,2013-03-13 21:09:00,
2013-03-13 17:14:00,45.1,2.9,28.94,North,0,0.0,0.0,17,0.00,,---,0.04,VWS V14.01,2013-03-13 21:14:00,
2013-03-13 17:19:00,45.1,2.9,28.94,NNW,347,4.9,6.3,17,0.00,,---,0.04,VWS V14.01,2013-03-13 21:19:00,
2013-03-13 17:24:00,44.8,2.6,28.94,North,0,3.1,4.0,17,0.00,,---,0.04,VWS V14.01,2013-03-13 21:24:00,
2013-03-13 17:29:00,44.2,2.2,28.94,North,0,0.0,0.0,17,0.00,,---,0.04,VWS V14.01,2013-03-13 21:29:00,
2013-03-13 17:34:00,44.1,5.6,28.94,North,0,0.0,0.0,20,0.00,,---,0.04,VWS V14.01,2013-03-13 21:34:00,
2013-03-13 17:39:00,44.1,2.0,28.94,North,0,0.0,0.0,17,0.00,,---,0.04,VWS V14.01,2013-03-13 21:39:00,
2013-03-13 17:44:00,44.1,2.0,28.94,North,0,0.0,0.0,17,0.00,,---,0.04,VWS V14.01,2013-03-13 21:44:00,
2013-03-13 17:49:00,44.1,5.6,28.94,North,0,0.0,0.0,20,0.00,,---,0.04,VWS V14.01,2013-03-13 21:49:00,
2013-03-13 17:54:00,44.1,5.6,28.94,North,4,0.0,0.0,20,0.00,,---,0.04,VWS V14.01,2013-03-13 21:54:00,
2013-03-13 17:59:00,44.1,2.0,28.94,North,4,0.0,0.0,17,0.00,,---,0.04,VWS V14.01,2013-03-13 21:59:00,
2013-03-13 18:04:00,43.7,1.8,28.94,North,4,0.0,0.0,17,0.00,,---,0.04,VWS V14.01,2013-03-13 22:04:00,
2013-03-13 18:09:00,43.5,5.1,28.94,North,351,0.0,0.0,20,0.00,,---,0.04,VWS V14.01,2013-03-13 22:09:00,
2013-03-13 18:14:00,43.5,5.1,28.94,NE,54,3.1,3.1,20,0.00,,---,0.04,VWS V14.01,2013-03-13 22:14:00,
2013-03-13 18:19:00,43.3,2.7,28.94,SW,235,0.0,0.0,18,0.00,,---,0.04,VWS V14.01,2013-03-13 22:19:00,
2013-03-13 18:25:00,43.3,2.7,28.94,SE,135,0.0,0.0,18,0.00,,---,0.04,VWS V14.01,2013-03-13 22:25:00,
2013-03-13 18:30:00,43.2,2.5,28.94,WSW,238,0.0,3.1,18,0.00,,---,0.04,VWS V14.01,2013-03-13 22:30:00,
2013-03-13 18:35:00,43.0,2.4,28.94,SE,141,0.0,0.0,18,0.00,,---,0.04,VWS V14.01,2013-03-13 22:35:00,
2013-03-13 18:40:00,43.0,2.4,28.94,North,351,4.5,4.5,18,0.00,,---,0.04,VWS V14.01,2013-03-13 22:40:00,
2013-03-13 18:45:00,42.6,4.4,28.97,NNE,31,0.0,0.0,20,0.00,,---,0.04,VWS V14.01,2013-03-13 22:45:00,
2013-03-13 18:50:00,42.3,4.1,28.97,NNE,31,0.0,0.0,20,0.00,,---,0.04,VWS V14.01,2013-03-13 22:50:00,
2013-03-13 18:55:00,42.3,4.1,28.97,ENE,72,3.1,3.6,20,0.00,,---,0.04,VWS V14.01,2013-03-13 22:55:00,
2013-03-13 19:00:00,41.7,4.7,28.97,North,5,2.7,5.4,21,0.00,,---,0.04,VWS V14.01,2013-03-13 23:00:00,
2013-03-13 19:05:00,41.7,4.7,28.97,ESE,123,0.0,0.0,21,0.00,,---,0.04,VWS V14.01,2013-03-13 23:05:00,
2013-03-13 19:10:00,41.7,4.7,28.97,ESE,107,4.9,4.9,21,0.00,,---,0.04,VWS V14.01,2013-03-13 23:10:00,
2013-03-13 19:15:00,41.5,4.5,28.97,South,186,3.1,4.5,21,0.00,,---,0.04,VWS V14.01,2013-03-13 23:15:00,
2013-03-13 19:20:00,41.0,4.1,28.97,ESE,112,0.0,6.7,21,0.00,,---,0.04,VWS V14.01,2013-03-13 23:20:00,
2013-03-13 19:25:00,40.6,5.8,28.97,NNW,340,0.0,4.9,23,0.00,,---,0.04,VWS V14.01,2013-03-13 23:25:00,
2013-03-13 19:30:00,40.5,5.6,28.97,SSE,151,0.0,3.6,23,0.00,,---,0.04,VWS V14.01,2013-03-13 23:30:00,
2013-03-13 19:36:00,40.3,9.8,28.97,NNE,22,0.0,3.1,28,0.00,,---,0.04,VWS V14.01,2013-03-13 23:36:00,
2013-03-13 19:41:00,39.9,10.2,28.97,NNE,32,0.0,0.0,29,0.00,,---,0.04,VWS V14.01,2013-03-13 23:41:00,
2013-03-13 19:46:00,39.7,10.1,28.97,NNW,343,0.0,4.9,29,0.00,,---,0.04,VWS V14.01,2013-03-13 23:46:00,
2013-03-13 19:51:00,39.4,9.8,28.97,ENE,66,0.0,0.0,29,0.00,,---,0.04,VWS V14.01,2013-03-13 23:51:00,
2013-03-13 19:56:00,39.4,10.5,28.97,ENE,69,0.0,0.0,30,0.00,,---,0.04,VWS V14.01,2013-03-13 23:56:00,
2013-03-13 20:01:00,39.2,10.4,28.97,NW,325,0.0,4.0,30,0.00,,---,0.04,VWS V14.01,2013-03-14 00:01:00,
2013-03-13 20:06:00,39.2,10.4,28.97,NNW,335,0.0,0.0,30,0.00,,---,0.04,VWS V14.01,2013-03-14 00:06:00,
2013-03-13 20:11:00,38.8,10.8,28.97,ENE,76,0.0,0.0,31,0.00,,---,0.04,VWS V14.01,2013-03-14 00:11:00,
2013-03-13 20:16:00,38.7,10.6,29.00,ENE,76,0.0,0.0,31,0.00,,---,0.04,VWS V14.01,2013-03-14 00:16:00,
2013-03-13 20:21:00,38.5,11.9,29.00,NE,46,2.7,4.5,33,0.00,,---,0.04,VWS V14.01,2013-03-14 00:21:00,
2013-03-13 20:26:00,38.1,11.6,29.00,East,80,0.0,0.0,33,0.00,,---,0.04,VWS V14.01,2013-03-14 00:26:00,
2013-03-13 20:31:00,37.9,12.1,29.00,NNE,18,0.0,3.1,34,0.00,,---,0.04,VWS V14.01,2013-03-14 00:31:00,
2013-03-13 20:36:00,37.6,12.4,29.00,North,351,2.7,4.0,35,0.00,,---,0.04,VWS V14.01,2013-03-14 00:36:00,
2013-03-13 20:41:00,37.2,12.7,29.00,NE,40,0.0,0.0,36,0.00,,---,0.04,VWS V14.01,2013-03-14 00:41:00,
2013-03-13 20:46:00,37.0,13.2,29.00,East,95,0.0,0.0,37,0.00,,---,0.04,VWS V14.01,2013-03-14 00:46:00,
2013-03-13 20:51:00,36.9,13.6,29.00,North,0,0.0,0.0,38,0.00,,---,0.04,VWS V14.01,2013-03-14 00:51:00,
2013-03-13 20:56:00,36.7,14.1,29.00,North,356,0.0,0.0,39,0.00,,---,0.04,VWS V14.01,2013-03-14 00:56:00,
2013-03-13 21:01:00,36.3,14.3,29.00,North,0,0.0,0.0,40,0.00,,---,0.04,VWS V14.01,2013-03-14 01:01:00,
2013-03-13 21:06:00,36.1,14.2,29.00,North,0,0.0,0.0,40,0.00,,---,0.04,VWS V14.01,2013-03-14 01:06:00,
2013-03-13 21:11:00,35.8,13.8,29.00,North,0,0.0,0.0,40,0.00,,---,0.04,VWS V14.01,2013-03-14 01:11:00,
2013-03-13 21:16:00,35.6,14.2,29.00,North,0,0.0,0.0,41,0.00,,---,0.04,VWS V14.01,2013-03-14 01:16:00,
2013-03-13 21:21:00,35.6,14.2,29.00,North,0,0.0,0.0,41,0.00,,---,0.04,VWS V14.01,2013-03-14 01:21:00,
2013-03-13 21:26:00,35.6,14.2,29.00,North,0,0.0,0.0,41,0.00,,---,0.04,VWS V14.01,2013-03-14 01:26:00,
2013-03-13 21:31:00,35.4,14.6,29.00,North,0,0.0,0.0,42,0.00,,---,0.04,VWS V14.01,2013-03-14 01:31:00,
2013-03-13 21:36:00,35.4,14.6,29.00,North,0,0.0,0.0,42,0.00,,---,0.04,VWS V14.01,2013-03-14 01:36:00,
2013-03-13 21:41:00,35.2,15.0,29.00,North,0,0.0,0.0,43,0.00,,---,0.04,VWS V14.01,2013-03-14 01:41:00,
2013-03-13 21:46:00,35.2,15.0,29.00,North,0,0.0,0.0,43,0.00,,---,0.04,VWS V14.01,2013-03-14 01:46:00,
2013-03-13 21:51:00,35.1,14.8,29.00,North,0,0.0,0.0,43,0.00,,---,0.04,VWS V14.01,2013-03-14 01:51:00,
2013-03-13 21:56:00,35.1,15.4,29.00,North,0,0.0,0.0,44,0.00,,---,0.04,VWS V14.01,2013-03-14 01:56:00,
2013-03-13 22:01:00,34.9,15.2,29.00,North,0,0.0,0.0,44,0.00,,---,0.04,VWS V14.01,2013-03-14 02:01:00,
2013-03-13 22:06:00,34.5,14.9,29.00,North,0,0.0,0.0,44,0.00,,---,0.04,VWS V14.01,2013-03-14 02:06:00,
2013-03-13 22:11:00,34.5,15.4,29.00,North,0,0.0,0.0,45,0.00,,---,0.04,VWS V14.01,2013-03-14 02:11:00,
2013-03-13 22:16:00,34.5,15.4,29.00,North,0,0.0,0.0,45,0.00,,---,0.04,VWS V14.01,2013-03-14 02:16:00,
2013-03-13 22:21:00,34.5,15.9,29.00,North,0,0.0,0.0,46,0.00,,---,0.04,VWS V14.01,2013-03-14 02:21:00,
2013-03-13 22:26:00,34.7,16.0,29.00,North,0,0.0,0.0,46,0.00,,---,0.04,VWS V14.01,2013-03-14 02:26:00,
2013-03-13 22:31:00,34.7,16.5,29.00,ESE,118,0.0,0.0,47,0.00,,---,0.04,VWS V14.01,2013-03-14 02:31:00,
2013-03-13 22:37:00,34.7,16.5,29.00,ESE,118,0.0,0.0,47,0.00,,---,0.04,VWS V14.01,2013-03-14 02:37:00,
2013-03-13 22:42:00,34.7,16.5,29.00,ESE,118,0.0,0.0,47,0.00,,---,0.04,VWS V14.01,2013-03-14 02:42:00,
2013-03-13 22:47:00,34.7,16.5,29.00,ESE,118,0.0,0.0,47,0.00,,---,0.04,VWS V14.01,2013-03-14 02:47:00,
2013-03-13 22:52:00,34.5,16.4,29.00,ESE,118,0.0,0.0,47,0.00,,---,0.04,VWS V14.01,2013-03-14 02:52:00,
2013-03-13 22:57:00,34.5,16.4,29.00,ESE,118,0.0,0.0,47,0.00,,---,0.04,VWS V14.01,2013-03-14 02:57:00,
2013-03-13 23:03:00,34.3,16.2,29.00,ESE,118,0.0,0.0,47,0.00,,---,0.04,VWS V14.01,2013-03-14 03:03:00,
2013-03-13 23:08:00,34.3,16.2,29.00,ESE,118,0.0,0.0,47,0.00,,---,0.04,VWS V14.01,2013-03-14 03:08:00,
2013-03-13 23:13:00,34.3,16.7,29.00,ESE,118,0.0,0.0,48,0.00,,---,0.04,VWS V14.01,2013-03-14 03:13:00,
2013-03-13 23:18:00,34.2,16.5,29.00,ESE,118,0.0,0.0,48,0.00,,---,0.04,VWS V14.01,2013-03-14 03:18:00,
2013-03-13 23:23:00,34.2,17.0,29.00,ESE,118,0.0,0.0,49,0.00,,---,0.04,VWS V14.01,2013-03-14 03:23:00,
2013-03-13 23:28:00,34.0,16.8,29.00,ESE,118,0.0,0.0,49,0.00,,---,0.04,VWS V14.01,2013-03-14 03:28:00,
2013-03-13 23:33:00,34.0,17.3,29.00,ESE,118,0.0,0.0,50,0.00,,---,0.04,VWS V14.01,2013-03-14 03:33:00,
2013-03-13 23:38:00,33.8,17.1,29.00,ESE,118,0.0,0.0,50,0.00,,---,0.04,VWS V14.01,2013-03-14 03:38:00,
2013-03-13 23:43:00,33.8,17.1,29.00,North,351,0.0,4.0,50,0.00,,---,0.04,VWS V14.01,2013-03-14 03:43:00,
2013-03-13 23:48:00,33.6,17.0,29.00,North,0,0.0,0.0,50,0.00,,---,0.04,VWS V14.01,2013-03-14 03:48:00,
2013-03-13 23:53:00,33.6,17.0,29.00,North,0,0.0,0.0,50,0.00,,---,0.04,VWS V14.01,2013-03-14 03:53:00,
2013-03-13 23:58:00,33.6,17.4,29.00,North,0,0.0,0.0,51,0.00,,---,0.04,VWS V14.01,2013-03-14 03:58:00,